Flag for Iran Weather past 2 weeks in Behbahan, Iran

Now
82 °F

Clear.


Feels Like: 81 °F
Forecast: 77 / 115 °F
Wind: No wind

Location: Gach Saran Du Gunbadan

Current Time: Jul 28, 2015 at 7:00:12 AM

Latest Report: Jul 28, 2015 at 6:30 AM


Visibility: 10 mi

Pressure: 29.65 "Hg

Humidity: 26%

Dew point: 45 °F

Location of BehbahanLocation

Historic Weather in Behbahan — Graph

°F

Behbahan temperature yesterday

Maximum temperature yesterday: 109 °F (at 4:30 PM)
Minimum temperature yesterday: 82 °F (at 5:30 AM)
Average temperature yesterday: 97 °F

Past Weeks' High & Low Weather Summary

 TemperatureHumidityPressure
High115 °F (Jul 16, 1:30 PM)48% (Jul 23, 5:30 AM)29.77 "Hg (Jul 23, 5:30 AM)
Low79 °F (Jul 15, 5:30 AM)4% (Jul 16, 2:30 PM)29.50 "Hg (Jul 20, 3:30 AM)
Average96 °F17%29.65 "Hg
* Reported Jul 13 5:30 AM — Jul 28 5:30 AM, Behbahan, Weather by CustomWeather, © 2015

Note: Actual official high and low records may vary slightly from our data, if they occured in-between our weather recording intervals... More about our weather records

Advertising

Behbahan weather history for previous 24 hours

 ConditionsComfort  
Time TempWeatherWind HumidityBarometerVisibility
5:30 AM
Tue, Jul 28
82 °FClear.No wind26%29.65 "Hg10 mi
4:30 AM84 °FClear.No wind25%29.65 "Hg10 mi
3:30 AM82 °FClear.No wind28%29.62 "Hg10 mi
2:30 AM84 °FClear.No wind27%29.65 "Hg10 mi
1:30 AM88 °FClear.5 mph22%29.65 "Hg10 mi
12:30 AM90 °FClear.No wind24%29.65 "Hg10 mi
11:30 PM
Mon, Jul 27
91 °FClear.No wind20%29.65 "Hg10 mi
10:30 PM95 °FClear.No wind16%29.65 "Hg10 mi
9:30 PM97 °FSunny.No wind17%29.65 "Hg10 mi
8:30 PM97 °FSunny.7 mph17%29.62 "Hg10 mi
7:30 PM102 °FPassing clouds.9 mph14%29.62 "HgN/A
6:30 PM104 °FPassing clouds.9 mph11%29.59 "HgN/A
5:30 PM106 °FScattered clouds.9 mph12%29.59 "HgN/A
4:30 PM109 °FScattered clouds.No wind8%29.62 "HgN/A
3:30 PM102 °FScattered clouds.12 mph11%29.62 "HgN/A
2:30 PM108 °FPassing clouds.7 mph10%29.62 "HgN/A
1:30 PM108 °FPassing clouds.5 mph10%29.65 "HgN/A
12:30 PM108 °FSunny.No wind12%29.65 "Hg10 mi
11:30 AM104 °FSunny.No wind13%29.68 "Hg10 mi
10:30 AM102 °FSunny.No wind14%29.68 "Hg10 mi
9:30 AM99 °FSunny.No wind17%29.68 "Hg10 mi
8:30 AM93 °FPassing clouds.5 mph21%29.68 "HgN/A
7:30 AM88 °FPassing clouds.No wind29%29.65 "HgN/A
Weather by CustomWeather, © 2015

See weather overviewHow to use our weather pages